Custer, SD

8:00 AM MDT on September 29, 2016 (GMT -0600)
Custer County

Weather History for KCUT - May, 2013

Change the Weather History Date:

Wednesday, May 15, 2013

  Actual Average Record
Temperature  
Mean Temperature 57 °F 48 °F  
Max Temperature 67 °F 60 °F 84 °F (1976)
Min Temperature 47 °F 36 °F 21 °F (1953)
Degree Days  
Heating Degree Days 8 17  
Month to date heating degree days 274 285  
Since 1 July heating degree days 7878 7935  
Cooling Degree Days 0 0  
Month to date cooling degree days 2 0  
Year to date cooling degree days 2 0  
Growing Degree Days 6 (Base 50)    
Moisture  
Dew Point 36 °F    
Average Humidity 52    
Maximum Humidity 71    
Minimum Humidity 32    
Precipitation  
Precipitation 0.04 in 0.09 in 2.75 in (1965)
Month to date precipitation 0.16 1.39  
Year to date precipitation 5.46 5.38  
Sea Level Pressure  
Sea Level Pressure 29.88 in    
Wind  
Wind Speed 8 mph (ESE)    
Max Wind Speed 18 mph    
Max Gust Speed 26 mph    
Visibility 10 miles    
Events Rain    
T = Trace of Precipitation, MM = Missing Value Source: NWS Daily Summary

Daily Weather History Graph

Daily Weather History Graph

Search for Another Location

Airport or City:

Trip Planner

Search our weather history database for the weather conditions in past years. The results will help you decide how hot, cold, wet, or windy it might be!

Date:

Astronomy

May. 15, 2013 Rise Set
Actual Time 5:28 AM MDT 8:13 PM MDT
Civil Twilight 4:55 AM MDT 8:46 PM MDT
Nautical Twilight 4:13 AM MDT 9:28 PM MDT
Astronomical Twilight 3:25 AM MDT 10:17 PM MDT
Moon 10:08 AM MDT (5/15) No Moon Set
Length of Visible Light 15h 51m
Length of Day
14h 44m
Waxing Crescent, 27% of the Moon is Illuminated
May 15
Waxing Crescent
May 17
First Quarter
May 24
Full
May 31
Last Quarter
Jun 8
New

Hourly Weather History & Observations

Time (MDT) Temp. Dew Point Humidity Pressure Visibility Wind Dir Wind Speed Gust Speed Precip Events Conditions
12:53 AM 51.1 °F 27.0 °F 39% 29.83 in 10.0 mi East 6.9 mph - N/A   Clear
1:53 AM 51.1 °F 27.0 °F 39% 29.85 in 10.0 mi ENE 9.2 mph - N/A   Clear
2:53 AM 50.0 °F 28.9 °F 44% 29.86 in 10.0 mi ENE 10.4 mph - N/A   Clear
3:53 AM 48.9 °F 32.0 °F 52% 29.88 in 10.0 mi ENE 8.1 mph - N/A   Clear
4:53 AM 48.0 °F 32.0 °F 54% 29.89 in 10.0 mi Calm Calm - N/A   Clear
5:53 AM 46.9 °F 32.0 °F 56% 29.90 in 10.0 mi Calm Calm - N/A   Clear
6:53 AM 51.1 °F 35.1 °F 54% 29.91 in 10.0 mi East 10.4 mph - N/A   Clear
7:53 AM 52.0 °F 35.1 °F 53% 29.94 in 10.0 mi ESE 15.0 mph 20.7 mph N/A   Clear
8:53 AM 54.0 °F 35.1 °F 49% 29.94 in 10.0 mi ESE 15.0 mph 26.5 mph N/A   Clear
9:53 AM 55.9 °F 35.1 °F 45% 29.95 in 10.0 mi East 13.8 mph 18.4 mph N/A   Clear
10:53 AM 57.0 °F 34.0 °F 42% 29.95 in 10.0 mi ESE 13.8 mph 21.9 mph N/A   Clear
11:53 AM 61.0 °F 35.1 °F 38% 29.93 in 10.0 mi ESE 10.4 mph 21.9 mph N/A   Clear
12:53 PM 63.0 °F 35.1 °F 35% 29.91 in 10.0 mi SSE 10.4 mph 19.6 mph N/A   Clear
1:53 PM 64.0 °F 36.0 °F 35% 29.88 in 10.0 mi SSE 10.4 mph 17.3 mph N/A   Clear
2:53 PM 64.9 °F 36.0 °F 34% 29.86 in 10.0 mi ESE 15.0 mph 20.7 mph N/A   Clear
3:53 PM 66.0 °F 36.0 °F 33% 29.84 in 10.0 mi SE 6.9 mph - N/A   Clear
4:53 PM 66.0 °F 36.0 °F 33% 29.84 in 10.0 mi SSE 9.2 mph 16.1 mph N/A   Clear
5:53 PM 66.0 °F 36.0 °F 33% 29.84 in 10.0 mi SE 10.4 mph 18.4 mph N/A   Clear
6:53 PM 64.0 °F 36.0 °F 35% 29.83 in 10.0 mi ESE 10.4 mph - N/A   Clear
7:53 PM 61.0 °F 37.0 °F 41% 29.85 in 10.0 mi ESE 4.6 mph - N/A   Clear
8:53 PM 59.0 °F 37.0 °F 44% 29.87 in 10.0 mi Calm Calm - 0.00 in Rain Light Rain
9:53 PM 54.0 °F 45.0 °F 72% 29.91 in 10.0 mi Calm Calm - 0.01 in Rain Light Rain
10:53 PM 52.0 °F 48.0 °F 86% 29.88 in 10.0 mi NNW 3.5 mph - 0.01 in   Overcast
11:53 PM 51.1 °F 46.9 °F 86% 29.88 in 10.0 mi WNW 5.8 mph - 0.01 in Rain Light Rain